This is the latest recevied weather packets stored in our database for station/object 4S6DRJ-13. If no packets are shown the sender has not sent any weather packets the latest 10 day(s).
| Time | Temp. | Humidity | Pressure | Rain* | Wind** | Luminosity | Snow |
|---|---|---|---|---|---|---|---|
| 1788365503 | 27.78° C | 84% | 1011.1 hPa | 0 mm | 0.89 m/s, 350° | 0 W/m² | - |
| 1788365443 | 27.78° C | 84% | 1011 hPa | 0 mm | 0.89 m/s, 216° | 0 W/m² | - |
| 1788365381 | 27.78° C | 84% | 1011.1 hPa | 0 mm | 0.89 m/s, 271° | 0 W/m² | - |
| 1788365320 | 27.78° C | 84% | 1011.1 hPa | 0 mm | 2.24 m/s, 181° | 0 W/m² | - |
| 1788365259 | 27.78° C | 84% | 1011.1 hPa | 0 mm | 1.34 m/s, 283° | 0 W/m² | - |
| 1788365198 | 27.78° C | 84% | 1011 hPa | 0 mm | 1.34 m/s, 267° | 0 W/m² | - |
| 1788365137 | 27.78° C | 84% | 1011 hPa | 0 mm | 1.34 m/s, 254° | 0 W/m² | - |
| 1788365076 | 27.78° C | 84% | 1011.1 hPa | 0 mm | 0.89 m/s, 231° | 0 W/m² | - |
| 1788365015 | 27.78° C | 84% | 1011.2 hPa | 0 mm | 0 m/s | 0 W/m² | - |
| 1788364954 | 27.78° C | 84% | 1011.1 hPa | 0 mm | 0.45 m/s, 311° | 0 W/m² | - |
| 1788364893 | 27.78° C | 85% | 1011.2 hPa | 0 mm | 1.34 m/s, 241° | 0 W/m² | - |
| 1788364832 | 27.78° C | 85% | 1011.2 hPa | 0 mm | 1.34 m/s, 204° | 0 W/m² | - |
| 1788364771 | 27.78° C | 85% | 1011.1 hPa | 0 mm | 0.89 m/s, 246° | 0 W/m² | - |
| 1788364710 | 27.78° C | 85% | 1010.8 hPa | 0 mm | 0.45 m/s, 245° | 0 W/m² | - |
| 1788364653 | 28.33° C | 85% | 1010.8 hPa | 0 mm | 0.45 m/s, 232° | 0 W/m² | - |
| 1788364588 | 27.78° C | 85% | 1011 hPa | 0 mm | 0.89 m/s, 173° | 0 W/m² | - |
| 1788364527 | 27.78° C | 85% | 1010.9 hPa | 0 mm | 0.45 m/s, 245° | 0 W/m² | - |
| 1788364466 | 27.78° C | 85% | 1010.8 hPa | 0 mm | 0.89 m/s, 264° | 0 W/m² | - |
| 1788364406 | 27.78° C | 85% | 1010.9 hPa | 0 mm | 1.34 m/s, 232° | 0 W/m² | - |
| 1788364344 | 27.78° C | 85% | 1010.9 hPa | 0 mm | 1.79 m/s, 220° | 0 W/m² | - |
| 1788364283 | 27.78° C | 85% | 1010.9 hPa | 0 mm | 1.79 m/s, 240° | 0 W/m² | - |
| 1788364222 | 27.78° C | 85% | 1010.8 hPa | 0 mm | 0.89 m/s, 60° | 0 W/m² | - |
| 1788364161 | 27.78° C | 85% | 1010.8 hPa | 0 mm | 1.79 m/s, 225° | 0 W/m² | - |
| 1788364100 | 27.78° C | 85% | 1010.9 hPa | 0 mm | 1.34 m/s, 214° | 0 W/m² | - |
| 1788364039 | 27.78° C | 85% | 1010.7 hPa | 0 mm | 1.34 m/s, 192° | 0 W/m² | - |
* Rain latest hour (hover to see other rain measurements)
** Current wind speed in m/s (hover to see current wind gust speed)